Wetbulb
62.36 62.38 62.45 59.98 58.15 57.53 57.15 56.88 56.69 56.69 56.70 57.08 57.82 58.09 57.41 57.01 55.46 55.28 53.50 56.29 58.27 61.53 60.35 58.17 58.06 57.18 55.86 54.02 55.40 54.71 47.76 46.23 49.00 51.14 51.06 54.06 52.81 55.27 56.26 54.08 55.01 55.88 56.01 56.68 58.53
61.73 60.25 58.53 57.45 56.93 56.65 56.19 55.47 55.72 56.22 56.85 57.05 57.50 57.31 56.68 55.99 53.47 53.36 55.61 61.19 61.15 62.13 59.21 56.06 54.88 55.48 52.08 52.44 53.01 50.36 47.01 48.13 52.41 52.97 52.28 53.25 53.41 54.28 53.30 53.63 53.85 54.43 57.16 57.36 58.27
58.84 57.75 56.93 56.50 55.82 55.17 54.75 54.54 55.06 55.26 56.01 56.94 56.95 56.96 55.61 55.20 52.64 54.76 59.60 60.59 60.71 60.42 59.17 57.36 55.71 53.48 49.96 51.22 51.41 50.54 46.58 50.16 51.69 52.36 52.54 51.41 51.53 52.98 51.29 50.88 53.61 53.14 54.20 56.01 57.71
57.17 56.34 55.80 54.94 54.23 53.83 54.11 54.14 54.21 54.35 55.13 56.09 56.50 56.50 55.67 55.69 44.93 56.40 60.04 60.24 60.52 57.94 56.73 54.73 53.35 50.26 49.40 48.69 51.91 47.90 50.04 50.14 50.81 51.50 50.55 49.22 51.24 50.63 51.60 52.04 54.51 54.34 55.33 56.40 56.40
55.95 55.19 54.14 53.37 53.02 53.08 53.44 53.89 53.85 54.10 54.69 55.87 55.77 56.07 55.95 50.60 49.55 57.35 60.01 60.25 57.83 55.65 53.16 51.83 49.79 50.12 48.60 50.15 50.84 48.99 49.63 50.44 51.46 50.94 50.76 51.29 49.84 50.31 50.97 53.85 54.19 54.84 55.91 55.76 55.75
54.47 53.39 52.23 52.05 52.22 52.84 53.23 54.08 54.57 54.46 54.45 55.42 55.26 54.89 52.41 44.62 54.25 55.97 55.57 54.45 54.83 54.94 53.63 53.45 51.62 53.08 50.34 49.27 48.99 50.31 50.07 51.09 51.23 50.81 51.35 49.63 49.88 51.02 52.04 54.36 53.36 53.41 54.83 55.31 54.77
53.40 51.99 51.45 51.38 51.78 52.58 53.27 53.76 54.55 55.26 55.11 55.39 55.03 53.73 49.43 47.81 54.77 55.12 54.75 53.58 54.17 55.44 53.59 54.41 54.51 51.47 50.90 48.99 52.50 50.36 46.94 48.46 49.01 49.53 49.16 51.62 47.84 48.39 52.35 53.63 52.26 52.53 54.10 54.61 54.41
52.91 51.62 50.88 50.80 51.59 52.50 52.93 53.24 53.89 54.45 54.88 55.68 55.19 53.76 46.75 54.62 54.72 51.96 53.29 52.67 54.06 54.41 52.97 53.95 56.21 52.75 50.86 52.16 50.49 47.64 47.54 43.33 48.96 49.91 50.47 49.02 43.02 49.02 52.41 52.29 51.10 51.93 53.83 53.94 53.20
52.77 51.71 50.54 50.67 51.04 52.18 52.62 53.21 53.50 54.32 54.35 55.15 53.23 52.79 46.32 53.90 50.18 55.88 56.78 54.14 54.23 53.61 52.92 55.12 54.39 51.10 51.47 46.70 44.65 46.88 42.30 44.79 46.51 50.33 49.53 47.89 45.34 50.33 52.54 51.58 50.57 50.97 52.34 53.15 52.35
53.18 51.31 50.35 50.28 51.16 52.26 52.72 52.60 53.30 52.83 53.74 54.87 53.39 46.43 49.40 46.71 52.45 55.04 57.81 57.01 54.28 53.53 51.59 51.10 49.97 47.06 47.10 45.35 38.87 42.12 43.26 45.37 45.03 48.47 48.53 46.47 45.86 48.60 50.30 50.43 50.75 50.22 51.38 52.42 51.52
53.54 51.76 50.29 50.27 51.26 52.49 51.14 51.61 49.26 49.21 50.08 47.53 48.80 47.54 48.75 51.72 53.02 50.83 55.94 54.99 54.38 50.88 45.11 49.46 45.04 42.47 45.41 47.27 46.73 46.16 44.51 43.54 45.90 47.97 46.82 46.00 45.89 47.36 49.58 49.84 49.36 49.90 50.85 52.10 50.62
52.95 51.64 50.33 50.21 51.36 52.03 50.38 47.64 49.16 50.10 42.25 48.61 49.20 48.37 49.90 49.63 45.16 49.03 55.47 50.18 49.56 44.86 47.69 45.71 42.62 47.46 48.64 47.28 45.95 45.60 43.68 42.57 45.04 47.40 46.73 45.45 44.57 46.82 48.42 48.97 49.93 50.31 51.45 51.11 49.45
52.64 51.80 50.11 49.89 51.49 49.60 48.69 49.79 53.91 52.99 42.96 44.67 47.02 45.97 46.33 47.71 44.38 45.75 49.33 50.28 46.84 44.99 45.53 43.28 45.55 48.70 46.33 45.61 43.98 44.50 42.61 42.64 42.17 45.04 46.09 44.40 42.12 44.29 47.58 49.33 50.27 50.99 51.58 51.97 49.82
52.43 51.55 50.39 49.73 45.90 50.71 49.05 53.11 54.15 54.14 38.63 41.51 43.19 45.68 47.42 47.06 43.29 49.05 48.33 47.46 46.14 43.25 44.77 44.56 47.65 45.52 45.13 43.05 44.14 39.97 44.85 43.62 42.70 40.95 36.43 43.85 35.37 42.74 45.68 46.90 48.12 48.62 50.13 50.81 50.86
51.79 51.20 50.14 48.32 47.45 47.05 52.63 54.48 54.11 52.13 27.79 43.93 43.33 50.58 49.77 43.92 47.53 45.68 48.99 45.94 42.42 44.04 44.47 42.17 43.44 43.05 41.94 43.02 45.38 41.71 45.41 43.25 42.44 39.80 38.64 38.79 36.15 40.00 44.85 44.31 45.92 47.56 49.07 50.34 50.79
51.59 51.18 50.06 47.99 47.96 52.10 53.90 54.19 52.19 38.41 28.01 41.00 45.99 43.49 45.05 45.53 45.62 49.66 47.24 48.11 46.21 41.77 43.19 42.95 46.15 45.36 44.32 45.77 45.44 45.97 42.49 42.08 41.71 39.45 32.59 37.90 37.60 38.21 41.62 44.62 46.92 48.22 49.17 50.06 50.32
51.63 51.21 49.04 49.58 45.99 53.54 53.49 49.56 35.59 29.99 42.00 39.02 41.45 43.99 43.56 42.91 43.51 44.98 42.82 40.77 39.11 35.08 35.82 40.10 41.07 45.41 46.32 42.23 44.90 42.91 39.17 31.70 30.77 31.68 31.55 40.69 38.50 40.83 45.13 46.83 48.07 47.59 48.60 50.07 50.73
51.29 50.65 49.43 49.42 51.16 52.92 50.37 40.52 28.14 35.60 36.72 41.50 41.28 43.40 40.86 43.94 43.76 44.16 42.42 39.98 43.19 42.59 39.40 36.36 34.80 41.87 45.14 42.14 40.44 41.39 40.42 33.79 26.15 28.71 32.26 39.57 34.36 39.15 46.77 48.66 49.06 49.91 50.12 50.37 50.01
50.70 48.59 47.99 49.59 52.07 51.28 43.37 31.71 30.36 35.36 39.86 38.16 40.25 37.18 39.20 41.95 42.77 43.32 42.67 41.35 43.63 43.83 38.30 37.16 37.72 44.93 45.26 45.57 43.68 39.91 37.14 41.83 36.03 36.76 32.21 35.27 39.05 43.78 46.49 46.77 48.69 48.29 49.19 49.03 49.53
46.69 44.97 45.59 52.36 52.52 46.72 38.89 32.62 35.15 39.89 39.97 39.49 34.31 38.54 36.30 39.00 39.54 40.21 40.73 43.80 42.74 45.30 46.58 41.78 35.64 42.75 44.32 45.45 44.87 42.17 43.57 34.89 36.91 25.99 25.24 32.39 34.72 36.54 41.77 43.87 46.15 47.04 47.33 48.65 49.97
45.13 39.21 46.72 51.86 49.77 41.01 32.88 33.53 36.67 40.93 40.94 37.03 36.03 35.37 36.29 35.86 37.66 36.96 37.75 41.34 43.44 43.62 44.67 42.47 39.54 38.75 42.57 38.61 38.30 39.16 38.11 38.71 37.90 35.16 27.70 26.17 31.47 42.31 41.41 44.44 44.46 45.21 45.69 47.41 48.96
43.49 33.95 49.49 50.18 36.35 37.85 33.39 36.01 39.41 38.83 41.09 38.90 38.73 36.68 35.14 36.55 35.20 35.29 35.63 39.04 44.48 43.32 38.89 41.43 38.50 33.58 36.62 42.56 43.04 40.91 38.59 39.10 32.11 30.60 32.40 30.76 30.53 44.13 45.22 45.18 44.38 45.35 47.29 49.04 47.89
38.12 36.86 48.32 47.41 31.84 32.03 34.24 35.61 37.78 37.50 37.89 37.83 36.48 38.32 38.48 35.71 32.53 36.33 37.36 41.74 42.81 41.56 39.32 41.06 35.82 28.77 31.32 36.07 39.21 36.89 38.37 38.90 39.19 37.93 31.69 28.17 30.95 44.16 45.09 45.35 45.60 43.84 44.65 46.75 47.73
36.76 30.83 36.49 41.13 40.77 36.06 33.64 33.50 34.45 39.93 39.17 39.65 38.12 38.92 36.74 34.53 36.85 34.06 35.50 39.99 42.69 41.41 42.28 41.99 36.77 32.41 28.20 31.93 35.83 32.66 35.53 37.78 37.52 31.91 31.92 32.43 34.34 39.76 42.22 43.17 44.40 45.36 46.78 47.27 46.87
36.63 34.46 38.18 30.25 34.48 37.24 37.15 36.32 34.13 34.12 39.04 39.66 36.99 36.89 35.76 32.25 33.44 33.25 35.76 37.31 40.86 42.37 41.22 39.37 31.53 33.41 34.08 35.11 35.53 35.04 35.15 36.26 35.03 36.07 31.55 34.34 35.03 39.34 41.54 42.57 43.97 45.18 45.92 45.46 44.56
32.31 35.69 40.23 38.50 37.71 36.42 36.67 35.08 34.57 36.00 37.17 35.30 34.61 36.68 37.36 33.78 34.90 33.11 36.09 36.85 36.39 40.10 39.37 40.69 31.79 34.17 31.00 35.54 35.14 32.66 34.71 35.16 35.49 36.09 35.94 36.32 35.59 42.19 43.84 44.64 44.68 45.20 45.43 45.51 44.49
37.72 43.12 41.05 37.65 36.59 34.95 35.38 35.91 36.20 38.36 39.13 39.33 38.58 36.97 35.51 37.22 39.68 41.31 41.91 41.08 40.14 37.92 36.70 36.62 33.17 30.90 26.74 33.54 33.26 28.14 33.81 35.20 36.04 37.82 37.43 32.23 38.71 42.49 41.67 43.35 43.97 44.31 45.27 45.26 42.33
MSLP
1019.17 1019.17 1019.23 1019.27 1019.22 1019.08 1019.00 1018.89 1018.77 1018.55 1018.29 1017.98 1017.47 1016.93 1016.18 1015.64 1014.58 1013.17 1012.39 1013.01 1012.71 1012.18 1011.89 1010.64 1009.00 1007.74 1007.48 1006.76 1006.23 1006.18 1005.79 1004.23 1003.06 1002.29 1003.19 1003.87 1003.95 1004.50 1005.21 1005.42 1005.67 1005.97 1006.50 1007.55 1007.97
1019.00 1019.08 1019.32 1019.35 1019.31 1019.19 1019.03 1018.89 1018.66 1018.41 1018.29 1018.03 1017.33 1016.72 1016.14 1015.72 1014.42 1013.07 1013.13 1012.75 1012.52 1012.30 1011.31 1009.93 1008.72 1008.31 1007.30 1006.20 1005.95 1005.96 1005.15 1004.14 1004.39 1004.29 1004.20 1004.42 1004.55 1004.68 1005.28 1005.20 1005.76 1006.34 1006.98 1007.81 1008.51
1018.90 1019.12 1019.17 1019.43 1019.18 1019.25 1019.07 1018.81 1018.72 1018.40 1018.19 1018.03 1017.42 1016.67 1015.94 1015.49 1013.78 1012.70 1012.81 1012.69 1012.63 1012.41 1011.33 1010.28 1009.23 1008.57 1007.53 1006.46 1005.75 1005.67 1005.17 1004.48 1004.71 1005.69 1005.54 1005.10 1005.08 1005.36 1005.66 1005.74 1006.14 1006.91 1007.67 1008.49 1009.03
1018.89 1019.00 1019.14 1019.30 1019.24 1019.13 1019.32 1018.91 1018.58 1018.34 1018.12 1017.98 1017.40 1016.61 1015.72 1014.92 1013.02 1012.60 1012.73 1012.64 1012.40 1012.25 1011.26 1010.13 1009.12 1008.13 1007.37 1006.40 1005.55 1005.64 1005.50 1005.06 1005.55 1005.89 1006.17 1005.65 1005.66 1005.74 1006.03 1006.24 1007.11 1007.62 1008.48 1009.34 1009.81
1018.92 1018.98 1019.17 1019.32 1019.25 1019.20 1019.10 1019.00 1018.61 1018.30 1018.04 1017.88 1017.26 1016.89 1015.58 1013.68 1011.78 1012.12 1012.42 1012.34 1011.99 1011.42 1010.73 1009.96 1009.26 1008.19 1007.26 1006.42 1006.07 1005.97 1005.78 1005.57 1005.87 1006.15 1006.45 1006.40 1006.13 1006.27 1006.18 1006.39 1007.50 1008.09 1009.25 1009.99 1010.55
1019.12 1018.93 1019.17 1019.25 1019.20 1019.14 1018.98 1018.97 1018.61 1018.27 1018.10 1017.74 1017.49 1016.95 1015.63 1013.12 1011.22 1011.36 1011.64 1011.62 1011.14 1010.62 1010.13 1009.62 1009.15 1008.51 1008.04 1007.47 1007.20 1006.31 1006.16 1006.13 1006.00 1006.01 1006.06 1006.28 1005.99 1005.94 1005.72 1006.16 1007.40 1008.14 1009.23 1010.59 1011.34
1019.13 1019.17 1019.13 1019.32 1019.31 1018.99 1018.64 1018.84 1018.57 1018.21 1017.95 1017.84 1017.67 1016.86 1014.69 1012.29 1010.86 1011.47 1011.35 1011.38 1010.97 1010.72 1010.20 1009.62 1009.77 1009.42 1008.35 1007.91 1007.46 1007.09 1007.00 1006.39 1005.78 1005.75 1005.85 1005.94 1005.94 1005.28 1005.31 1005.99 1007.24 1007.79 1008.86 1010.72 1011.73
1018.81 1018.96 1019.41 1019.32 1019.26 1019.16 1018.56 1018.66 1018.50 1018.09 1017.77 1017.81 1017.75 1016.59 1013.47 1011.02 1011.22 1011.41 1011.31 1010.80 1010.85 1010.82 1010.88 1010.61 1010.53 1009.99 1009.14 1008.39 1007.79 1007.37 1006.82 1005.74 1004.38 1004.18 1005.66 1006.56 1005.45 1004.17 1005.00 1005.87 1006.91 1007.45 1008.74 1010.44 1012.09
1018.94 1018.74 1019.23 1019.55 1019.04 1019.04 1018.69 1018.44 1018.27 1018.02 1017.69 1017.82 1017.25 1015.60 1012.39 1011.41 1011.08 1010.83 1010.93 1010.25 1010.29 1010.68 1010.87 1010.67 1010.65 1009.91 1008.70 1008.53 1007.72 1006.44 1005.59 1004.57 1004.06 1004.29 1005.07 1005.96 1005.46 1004.79 1005.37 1006.06 1006.49 1007.14 1008.11 1009.99 1011.86
1018.97 1019.09 1019.20 1019.28 1019.38 1018.70 1018.69 1018.18 1017.74 1017.86 1017.20 1016.79 1015.76 1015.06 1012.00 1010.45 1010.08 1010.61 1010.56 1010.21 1010.13 1010.34 1010.68 1010.75 1010.17 1009.31 1008.65 1007.87 1006.73 1005.39 1004.85 1004.23 1003.92 1004.46 1005.08 1005.26 1005.27 1005.31 1005.29 1005.48 1005.73 1006.41 1007.80 1009.55 1011.42
1019.05 1019.33 1019.16 1019.33 1019.24 1019.03 1018.51 1017.53 1017.49 1016.98 1015.70 1013.49 1012.58 1011.64 1010.38 1010.13 1010.48 1010.29 1010.00 1010.12 1009.94 1010.31 1009.97 1009.48 1009.24 1008.20 1007.35 1006.59 1006.15 1005.58 1005.49 1005.22 1004.72 1004.30 1004.50 1004.54 1004.74 1004.98 1005.40 1005.34 1005.37 1006.05 1007.25 1008.89 1011.54
1018.90 1019.18 1019.19 1019.26 1019.30 1019.02 1018.83 1016.98 1015.29 1016.00 1014.26 1012.36 1011.45 1010.80 1010.29 1009.95 1010.24 1009.67 1009.64 1009.76 1009.58 1009.45 1009.32 1008.72 1007.88 1007.42 1006.96 1006.64 1006.58 1006.82 1006.23 1005.82 1005.44 1005.22 1005.15 1005.09 1004.71 1005.18 1005.18 1004.92 1005.19 1005.70 1007.18 1009.17 1011.42
1019.00 1019.07 1019.01 1019.25 1019.17 1019.02 1017.60 1016.04 1015.51 1015.77 1014.26 1011.00 1009.72 1009.07 1009.32 1009.97 1009.56 1008.90 1009.08 1009.28 1009.09 1008.98 1008.87 1007.82 1006.72 1006.30 1006.94 1006.78 1006.90 1007.11 1006.72 1006.33 1005.91 1005.70 1005.65 1005.76 1004.85 1004.74 1004.11 1004.24 1005.11 1006.68 1007.77 1009.18 1011.05
1018.81 1018.96 1019.24 1019.30 1019.52 1017.15 1016.76 1016.11 1015.76 1016.33 1013.97 1009.29 1008.68 1008.20 1008.78 1009.80 1009.15 1008.80 1008.12 1008.85 1008.79 1008.33 1008.34 1007.51 1006.96 1006.24 1006.46 1007.09 1007.57 1007.04 1006.92 1006.54 1006.66 1006.75 1006.23 1006.20 1004.51 1004.19 1003.98 1004.29 1005.70 1007.01 1008.07 1009.34 1010.82
1019.20 1018.97 1019.18 1019.03 1018.50 1017.19 1017.08 1016.63 1016.39 1016.35 1013.00 1008.12 1008.48 1009.04 1008.71 1009.12 1008.56 1008.38 1008.22 1008.60 1008.45 1008.04 1008.41 1007.01 1006.75 1006.74 1006.73 1006.76 1007.29 1007.16 1007.41 1007.89 1007.94 1007.59 1007.28 1006.39 1005.99 1003.22 1003.88 1003.26 1004.91 1006.91 1008.56 1009.74 1011.04
1018.99 1019.32 1019.32 1018.93 1018.15 1017.17 1017.45 1017.31 1016.82 1015.55 1010.75 1007.72 1008.04 1008.71 1008.92 1008.86 1008.27 1008.63 1009.28 1009.42 1008.88 1008.80 1007.90 1007.55 1007.13 1006.88 1006.82 1006.91 1007.13 1007.85 1008.49 1008.40 1008.68 1008.38 1007.41 1006.46 1005.70 1003.24 1003.27 1002.83 1003.55 1006.21 1008.19 1009.51 1010.87
1018.75 1019.14 1019.28 1018.19 1017.50 1017.27 1017.80 1017.53 1016.43 1013.25 1008.91 1007.45 1007.31 1007.61 1008.12 1007.98 1008.09 1008.24 1008.67 1009.10 1008.40 1008.30 1007.54 1007.43 1006.88 1007.03 1007.30 1007.10 1007.62 1008.47 1008.58 1008.30 1007.87 1007.65 1006.56 1005.85 1004.24 1003.07 1002.94 1002.97 1003.93 1005.97 1007.68 1009.22 1010.53
1018.35 1019.03 1018.88 1018.31 1017.62 1017.91 1018.01 1017.36 1014.97 1010.59 1009.41 1007.86 1007.17 1006.94 1007.18 1006.98 1007.36 1007.68 1007.74 1007.96 1007.98 1007.14 1006.50 1006.42 1005.96 1006.11 1006.33 1006.81 1006.98 1007.54 1007.86 1008.17 1007.74 1007.53 1006.86 1006.20 1004.81 1003.89 1003.47 1003.63 1004.25 1005.59 1006.79 1008.63 1010.37
1018.39 1018.96 1018.86 1018.25 1017.96 1018.21 1018.18 1016.34 1012.42 1010.94 1008.66 1007.95 1007.36 1007.26 1006.84 1006.52 1006.56 1006.89 1007.14 1007.07 1006.67 1006.82 1006.49 1005.69 1005.03 1005.08 1005.29 1006.23 1007.17 1006.96 1007.13 1007.64 1007.95 1008.37 1007.98 1007.32 1005.65 1004.64 1003.53 1003.56 1004.82 1006.02 1007.17 1008.47 1010.00
1018.32 1018.36 1018.27 1017.85 1018.05 1018.20 1017.92 1014.69 1012.23 1010.61 1009.45 1009.00 1008.00 1007.43 1006.99 1006.64 1007.08 1007.43 1007.50 1006.95 1006.84 1007.24 1006.75 1006.47 1006.16 1005.91 1006.07 1006.78 1006.92 1007.38 1007.86 1008.10 1008.52 1009.46 1008.80 1007.60 1006.29 1005.59 1005.84 1006.25 1006.93 1007.77 1008.51 1008.91 1010.11
1018.11 1017.84 1017.29 1017.54 1018.00 1017.93 1016.12 1013.63 1012.28 1010.81 1010.66 1010.30 1009.70 1008.58 1008.12 1007.93 1007.89 1007.93 1007.64 1008.14 1008.47 1008.44 1008.35 1008.01 1007.52 1007.12 1006.77 1008.08 1007.39 1007.40 1007.80 1008.44 1009.10 1009.67 1009.50 1008.86 1007.42 1007.84 1008.13 1008.05 1008.39 1009.31 1010.45 1010.87 1009.97
1017.29 1017.36 1016.67 1017.16 1017.53 1016.75 1014.90 1013.41 1012.49 1011.36 1011.19 1010.81 1010.95 1010.47 1009.83 1009.29 1009.42 1009.16 1008.97 1009.52 1009.64 1009.89 1009.64 1009.35 1008.97 1008.28 1007.74 1007.53 1007.36 1007.80 1008.46 1008.85 1009.56 1010.12 1010.72 1010.53 1009.43 1008.01 1008.44 1008.93 1009.85 1010.34 1010.65 1010.83 1011.99
1016.36 1016.70 1016.32 1016.36 1015.75 1015.18 1014.38 1013.34 1012.63 1011.79 1011.21 1010.93 1011.21 1011.00 1010.69 1010.59 1010.75 1010.41 1010.08 1010.80 1010.98 1011.13 1010.96 1011.05 1010.41 1010.03 1009.17 1008.72 1008.01 1007.89 1008.32 1008.61 1008.89 1009.13 1009.25 1009.52 1008.05 1007.80 1007.77 1008.25 1009.11 1009.89 1011.03 1011.09 1011.15
1016.21 1016.30 1015.82 1015.88 1014.79 1013.93 1013.35 1012.93 1012.06 1011.60 1011.02 1011.31 1011.11 1011.00 1011.03 1011.14 1011.20 1011.18 1010.94 1010.83 1011.39 1011.75 1012.19 1012.32 1011.62 1011.08 1010.42 1009.53 1009.14 1008.91 1008.97 1008.83 1008.69 1009.20 1009.16 1008.69 1008.31 1007.58 1007.59 1007.65 1008.11 1008.93 1010.04 1011.03 1012.39
1014.60 1014.24 1013.50 1014.04 1013.86 1013.12 1012.78 1012.20 1011.40 1010.86 1011.04 1011.20 1011.41 1011.15 1011.07 1011.41 1011.45 1011.51 1011.56 1011.28 1011.47 1011.70 1012.18 1012.59 1012.33 1012.06 1011.57 1010.63 1010.18 1009.62 1008.99 1008.38 1008.12 1008.22 1008.40 1007.91 1007.17 1006.57 1006.05 1006.43 1007.00 1007.98 1009.17 1010.92 1012.38
1014.05 1013.43 1012.13 1011.71 1013.06 1012.67 1011.86 1011.07 1010.41 1010.42 1010.17 1010.93 1011.27 1011.00 1011.14 1011.32 1011.33 1011.27 1011.18 1011.02 1010.96 1011.28 1011.75 1012.23 1012.12 1012.39 1011.89 1011.07 1010.75 1010.25 1009.18 1008.19 1007.95 1007.70 1007.40 1007.02 1006.35 1005.87 1005.83 1005.99 1006.47 1007.75 1008.51 1010.36 1012.36
1013.59 1012.71 1012.06 1011.52 1011.84 1011.86 1010.77 1010.23 1010.08 1009.82 1009.73 1009.92 1010.38 1010.68 1010.84 1011.24 1011.74 1011.47 1011.73 1012.27 1011.97 1011.87 1012.18 1012.60 1012.88 1012.78 1011.80 1011.88 1011.23 1010.43 1008.34 1008.18 1007.55 1007.18 1006.89 1006.48 1006.18 1005.97 1006.10 1006.71 1007.66 1008.80 1009.38 1010.73 1012.94
Wind_Speed
6 5 4 2 3 5 7 8 9 10 12 14 15 17 19 20 23 15 11 3 6 11 14 15 18 10 12 12 9 12 10 12 12 13 12 6 4 10 5 6 4 0 12 10 10
3 1 2 2 2 4 6 8 8 9 11 13 13 16 19 19 11 17 1 5 10 11 14 10 12 11 9 10 6 7 10 11 9 10 8 4 4 4 1 10 6 7 9 11 9
6 4 3 1 2 4 6 7 8 10 11 13 14 17 21 18 12 5 1 5 9 12 16 13 12 13 14 14 9 12 13 8 4 9 9 9 3 6 2 7 9 8 6 10 6
5 4 3 2 2 3 7 7 8 9 11 13 14 18 24 7 6 5 1 3 7 11 13 12 10 11 13 14 13 7 14 10 10 5 5 6 8 7 7 5 8 7 9 6 7
6 5 3 2 2 4 6 8 9 10 10 11 14 16 13 6 9 7 6 10 9 10 10 11 11 12 11 11 9 10 14 12 4 6 8 9 10 10 10 5 5 12 8 7 7
6 6 3 2 2 4 7 9 9 9 9 10 12 17 8 12 3 1 4 7 9 8 12 7 9 10 10 13 13 14 10 13 11 11 11 11 12 11 11 9 8 7 14 8 6
6 5 3 2 3 5 6 8 9 8 8 9 11 9 9 17 5 6 6 7 8 7 10 4 8 8 7 11 9 9 14 16 18 16 17 9 11 19 13 14 8 9 14 11 6
7 5 2 2 5 7 7 9 10 8 8 9 11 9 8 7 5 10 13 11 9 7 9 11 7 11 13 11 9 13 15 14 15 19 8 3 12 18 13 13 9 9 14 11 9
5 5 1 3 4 8 10 11 12 10 8 9 9 7 9 3 7 2 6 5 2 7 10 7 6 11 8 10 11 14 12 14 11 13 9 12 9 7 13 11 9 8 8 12 11
3 2 1 3 7 8 12 11 9 9 10 10 10 8 7 6 3 3 5 5 5 6 7 8 7 8 9 11 11 13 11 11 10 13 10 10 14 14 12 12 14 9 8 13 10
4 2 2 4 7 10 10 7 6 7 10 10 2 10 1 4 3 9 9 8 8 8 10 14 10 12 17 18 16 14 13 15 15 17 14 13 15 13 16 19 17 11 13 14 12
7 4 2 4 8 10 7 7 7 5 11 16 21 21 18 6 5 13 12 9 13 13 15 13 14 16 16 18 7 12 14 16 17 16 15 18 18 17 19 19 17 10 7 15 14
9 7 3 4 7 7 10 11 7 8 9 15 22 19 18 14 12 15 16 13 15 16 18 19 15 6 5 13 11 14 16 16 18 15 15 17 22 22 24 20 8 3 3 15 14
10 7 5 2 4 7 9 2 4 4 8 8 9 5 9 7 10 21 15 16 14 20 19 17 18 21 14 14 15 18 16 15 10 9 12 12 16 15 15 9 9 9 8 10 12
9 8 7 6 10 7 7 4 2 3 8 9 10 8 11 15 5 7 12 8 18 18 12 12 9 10 15 18 16 18 8 7 11 13 14 16 11 18 16 16 18 15 12 11 11
11 7 6 5 5 5 5 5 4 4 11 8 9 10 13 16 11 7 7 9 9 19 18 19 19 8 11 13 9 8 4 11 13 11 13 16 15 18 14 7 18 17 15 14 14
12 10 6 9 2 5 2 4 4 9 5 7 8 15 16 13 15 11 13 13 11 10 16 20 20 14 12 10 9 8 9 6 7 10 12 18 13 9 14 3 13 19 17 15 14
12 10 6 6 4 2 5 5 11 9 20 6 1 11 15 15 15 14 13 13 19 15 11 13 15 21 15 16 14 17 13 7 9 11 14 21 13 8 8 8 14 16 17 17 15
11 4 6 5 3 3 7 10 11 16 7 9 18 11 13 16 10 16 18 16 17 19 14 10 12 14 18 10 13 12 12 13 13 13 12 14 21 18 18 14 9 9 10 16 16
5 3 7 9 7 4 6 19 17 16 8 9 13 9 10 11 9 8 12 7 11 2 9 13 12 7 11 8 11 8 10 8 4 4 13 13 16 8 11 9 4 2 5 11 15
4 3 6 11 7 6 12 14 23 19 14 3 11 15 11 10 11 12 14 8 5 7 6 11 12 12 11 7 14 12 12 12 9 10 11 13 11 8 10 8 4 6 8 19 17
3 6 10 12 6 5 14 12 11 17 17 6 7 9 12 10 14 12 15 7 9 6 7 6 6 9 14 13 14 3 11 11 5 6 2 5 10 12 7 2 10 15 8 13 4
4 1 9 11 9 11 15 16 19 19 20 13 12 11 10 12 8 10 12 9 4 4 5 9 3 7 13 14 16 16 12 17 15 12 15 12 13 9 16 8 5 3 7 5 8
5 5 4 6 10 17 19 19 18 22 15 12 13 10 12 13 14 7 11 6 5 3 5 3 8 13 11 15 17 15 15 16 15 10 13 13 17 19 17 17 12 11 4 6 15
5 5 8 10 13 18 17 15 22 20 22 12 13 17 12 10 13 15 18 17 10 8 5 5 13 15 18 22 21 22 21 22 21 16 17 19 18 19 17 12 4 10 10 12 15
5 5 9 9 17 21 18 20 23 20 17 20 17 15 15 15 15 15 18 18 17 16 16 13 12 12 19 20 19 22 24 24 23 22 23 22 23 19 18 17 7 9 11 12 14
3 5 4 10 16 17 21 24 23 20 16 21 18 13 15 12 10 13 8 7 10 10 6 13 4 11 16 17 17 12 22 22 21 20 19 18 15 16 16 6 5 2 1 14 16
Wind_Direction
256 270 274 27 348 348 344 345 347 349 344 339 335 326 325 323 316 302 304 25 338 333 324 277 270 263 288 259 253 276 267 263 278 329 93 112 196 132 75 285 86 142 55 52 26
227 150 93 64 354 344 344 341 344 348 342 336 334 327 319 327 307 290 72 354 355 339 319 338 333 334 299 264 253 238 261 276 20 18 60 92 310 62 316 208 178 189 81 58 23
152 144 118 93 38 345 338 338 339 344 342 336 331 326 317 323 294 85 194 352 332 314 305 304 288 288 291 281 264 253 246 313 34 31 351 338 349 272 298 283 46 59 48 62 43
153 139 128 119 44 351 329 331 335 338 339 333 331 328 314 282 313 77 216 279 281 291 293 294 285 287 278 274 238 271 272 288 301 91 302 306 305 311 289 287 77 94 74 53 53
148 130 111 70 11 336 326 324 326 330 331 327 332 327 321 279 293 147 207 231 262 261 278 294 295 280 266 289 295 263 269 278 225 267 260 272 262 268 262 199 127 114 94 80 50
138 121 104 57 350 334 329 323 322 321 315 322 323 317 271 277 34 1 315 285 254 277 265 257 282 344 313 283 289 311 310 295 270 250 242 249 252 235 238 173 177 199 136 107 71
138 122 98 33 338 330 332 319 318 319 309 307 310 301 270 251 307 291 264 265 308 301 301 288 309 287 324 286 315 290 281 270 253 241 249 247 260 243 227 148 192 237 138 118 96
142 120 73 10 341 324 317 304 303 302 311 282 288 292 261 327 346 289 261 255 236 257 272 298 294 281 271 270 276 259 261 263 264 210 142 179 285 300 175 156 202 239 143 142 101
150 129 122 326 326 313 306 299 285 280 281 273 267 228 268 147 229 211 260 248 163 229 243 274 272 257 247 238 260 216 250 257 241 167 162 192 286 74 153 203 210 224 195 143 124
170 152 299 328 316 315 298 279 289 283 234 241 253 281 246 233 123 262 227 223 182 173 205 232 227 240 221 233 246 264 261 259 274 172 202 245 253 254 279 250 228 214 249 134 132
196 227 277 320 321 312 315 255 226 194 224 232 208 265 236 133 245 217 194 205 229 199 218 196 215 231 241 236 259 284 276 282 286 301 283 267 268 262 275 267 261 214 224 137 118
187 213 261 326 312 310 298 260 17 354 289 250 253 256 261 283 272 230 180 214 207 221 222 244 227 250 271 278 304 287 276 274 280 277 273 284 284 281 269 263 261 239 99 118 120
201 199 185 284 316 292 245 281 9 321 263 262 236 235 233 219 230 237 201 223 243 229 240 252 249 134 265 276 239 251 259 271 276 287 295 296 277 264 251 251 196 119 221 131 147
185 180 188 285 296 244 244 334 324 316 271 242 198 234 180 213 247 230 245 210 234 237 253 260 260 263 245 242 264 264 274 289 302 287 269 272 286 273 291 193 155 164 167 137 152
200 185 198 187 313 255 35 343 343 234 283 96 121 113 159 190 107 188 210 235 234 231 227 230 230 245 257 261 237 262 291 303 280 276 285 264 260 277 270 266 173 165 163 161 148
192 190 192 222 236 294 356 324 257 231 241 188 128 186 186 213 240 118 187 233 250 242 251 242 274 274 241 257 241 282 281 267 252 249 253 266 252 267 271 335 177 159 167 165 162
187 176 200 308 319 89 237 227 206 235 262 172 176 179 204 188 220 173 185 197 197 194 227 240 233 230 239 240 198 226 246 269 245 231 242 257 272 262 319 174 156 168 168 168 166
179 168 219 247 272 167 242 216 237 229 241 349 346 176 213 213 209 194 197 211 225 231 279 212 217 212 192 227 223 209 225 229 276 280 297 305 285 280 330 83 120 165 170 162 165
144 201 240 213 237 255 225 211 219 237 281 328 230 254 223 240 216 205 221 219 217 218 237 258 255 178 206 184 228 248 251 270 283 284 285 273 273 268 274 243 159 153 164 160 167
171 163 240 184 181 197 219 240 227 260 299 298 275 223 240 219 214 207 242 260 264 295 309 277 280 187 182 231 248 266 296 298 294 262 270 273 278 320 36 33 11 338 248 170 159
160 193 207 153 170 199 220 227 222 258 296 265 284 288 281 290 291 289 263 111 354 268 301 298 280 258 233 185 254 242 230 245 279 280 274 281 271 86 36 332 292 289 315 309 153
181 206 168 155 180 205 234 237 251 263 278 228 299 296 301 304 292 300 298 71 16 21 308 9 322 292 276 270 278 314 290 277 234 251 219 215 259 290 153 353 352 345 271 229 158
181 172 180 189 200 212 237 245 245 246 236 226 232 249 273 267 283 259 265 106 229 276 358 346 241 281 276 270 267 265 258 259 262 246 263 281 272 305 307 250 72 150 263 335 174
148 173 206 197 234 215 220 237 242 239 242 240 250 244 251 240 253 256 260 176 166 247 75 6 271 258 274 288 309 302 288 274 259 266 273 268 287 288 271 277 227 241 297 14 137
204 190 181 177 214 221 230 227 227 230 229 225 242 246 233 227 225 236 243 263 191 179 211 224 258 265 271 271 274 278 284 277 273 271 247 267 265 270 288 295 174 196 203 156 148
168 199 172 194 203 214 220 234 229 221 221 209 224 241 231 242 249 244 242 233 228 215 212 217 244 260 272 274 283 281 275 273 275 277 280 283 281 287 293 295 251 225 214 167 165
171 256 226 208 198 199 215 223 238 230 218 232 212 238 229 249 343 317 339 257 271 284 269 256 234 275 265 275 282 289 259 268 274 275 279 279 294 321 319 7 333 322 191 160 159